Terminal Aerodrome Forecast
Issued by NWS

Home | Current Version | Previous Version | Text Only | Print | Product List | Glossary On
Versions: 1 2 3 4 5 6 7 8 9 10 11 12 13 14 15 16 17 18
000
FTUS43 KDVN 020058 AAA
TAFCID
TAF AMD
KCID 020058Z 0201/0224 20005KT P6SM SKC
     FM021000 20010KT P6SM VCTS SCT035CB BKN100
     FM021400 23014G20KT P6SM SCT150
     FM021700 23018G26KT P6SM SCT050=

USA.gov is the U.S. government's official web portal to all federal, state and local government web resources and services.